Location: La Bastide
(43.1661°N, 1.2755°E)
Time: 18:10:50
(UTC+00:00)

ISS - Pass Details

Date: 18 February 2026
Orbit: 416 x 427 km, 51.6° (Epoch: 6 March)

Event Time Altitude Azimuth Distance (km) Brightness Sun altitude
Exits shadow 03:54:29 10° 69° (ENE) 1,471 -0.2 -32.2°
Drops below altitude 10° 03:54:38 10° 68° (ENE) 1,528 -0.1 -32.2°
Sets 03:56:42 0° 62° (ENE) 2,359 1.1 -31.8°
